SIL178 KMIA-KTPA

Flight info

Callsign SIL178
Flight time 0h 52m
Altitude 16000
Route BNGOS COREA BLFRG3
Aircraft AT76/M-SDFGIRY/S

Departure

Time 2026-05-04 19:47
Airport Miami International Airport (KMIA)

Arrival

Time 2026-05-04 20:40
Airport Tampa International Airport (KTPA)
Time Latitude Longitude Altitude Speed Heading
2026-05-04 19:29 25.80597 -80.26954 13 ft 0 kts 356°
2026-05-04 19:35 25.80598 -80.26955 13 ft 0 kts 347°
2026-05-04 19:35 25.80599 -80.26957 13 ft 0 kts 318°
2026-05-04 19:35 25.80598 -80.26960 13 ft 0 kts 283°
2026-05-04 19:36 25.80594 -80.26962 13 ft 1 kts 219°
2026-05-04 19:36 25.80585 -80.26966 13 ft 5 kts 200°
2026-05-04 19:36 25.80559 -80.26973 13 ft 5 kts 189°
2026-05-04 19:36 25.80548 -80.26975 13 ft 0 kts 191°
2026-05-04 19:40 25.80531 -80.26993 12 ft 10 kts 238°
2026-05-04 19:40 25.80518 -80.27106 12 ft 17 kts 267°
2026-05-04 19:41 25.80511 -80.27239 14 ft 18 kts 266°
2026-05-04 19:41 25.80507 -80.27377 13 ft 19 kts 268°
2026-05-04 19:41 25.80509 -80.27529 13 ft 19 kts 270°
2026-05-04 19:41 25.80504 -80.27673 16 ft 18 kts 267°
2026-05-04 19:42 25.80497 -80.27814 17 ft 19 kts 267°
2026-05-04 19:42 25.80492 -80.27963 16 ft 19 kts 266°
2026-05-04 19:42 25.80486 -80.28112 17 ft 19 kts 267°
2026-05-04 19:42 25.80480 -80.28258 18 ft 19 kts 267°
2026-05-04 19:43 25.80474 -80.28415 14 ft 21 kts 268°
2026-05-04 19:43 25.80465 -80.28579 13 ft 21 kts 267°
2026-05-04 19:43 25.80460 -80.28735 15 ft 20 kts 268°
2026-05-04 19:43 25.80453 -80.28890 12 ft 21 kts 266°
2026-05-04 19:44 25.80447 -80.29052 12 ft 21 kts 268°
2026-05-04 19:44 25.80440 -80.29204 15 ft 19 kts 266°
2026-05-04 19:44 25.80433 -80.29354 14 ft 20 kts 268°
2026-05-04 19:44 25.80428 -80.29508 14 ft 20 kts 268°
2026-05-04 19:45 25.80422 -80.29657 16 ft 19 kts 267°
2026-05-04 19:45 25.80415 -80.29803 16 ft 19 kts 268°
2026-05-04 19:45 25.80411 -80.29960 14 ft 21 kts 267°
2026-05-04 19:45 25.80380 -80.30061 15 ft 10 kts 201°
2026-05-04 19:46 25.80303 -80.30050 14 ft 11 kts 144°
2026-05-04 19:46 25.80296 -80.30018 16 ft 0 kts 85°
2026-05-04 19:46 25.80296 -80.30017 15 ft 2 kts 85°
2026-05-04 19:46 25.80308 -80.29760 13 ft 64 kts 87°
2026-05-04 19:47 25.80339 -80.29065 17 ft 114 kts 86°
2026-05-04 19:47 25.80376 -80.28081 205 ft 136 kts 85°
2026-05-04 19:47 25.80503 -80.27068 741 ft 132 kts 68°
2026-05-04 19:47 25.80965 -80.26114 784 ft 153 kts 56°
2026-05-04 19:48 25.81571 -80.25092 967 ft 162 kts 54°
2026-05-04 19:48 25.82209 -80.24058 1357 ft 162 kts 52°
2026-05-04 19:48 25.82868 -80.23064 1762 ft 159 kts 40°
2026-05-04 19:48 25.83923 -80.22728 2031 ft 165 kts
2026-05-04 19:49 25.84958 -80.23262 2419 ft 172 kts 320°
2026-05-04 19:49 25.85758 -80.24272 2770 ft 176 kts 315°
2026-05-04 19:49 25.86535 -80.25328 3162 ft 177 kts 312°
2026-05-04 19:49 25.87302 -80.26399 3514 ft 177 kts 313°
2026-05-04 19:50 25.88060 -80.27470 3861 ft 178 kts 312°
2026-05-04 19:50 25.88827 -80.28551 4198 ft 178 kts 311°
2026-05-04 19:50 25.89605 -80.29629 4551 ft 179 kts 311°
2026-05-04 19:50 25.90389 -80.30683 4972 ft 174 kts 311°
2026-05-04 19:51 25.91175 -80.31692 5368 ft 172 kts 311°
2026-05-04 19:51 25.91976 -80.32680 5742 ft 171 kts 311°
2026-05-04 19:51 25.92777 -80.33663 6089 ft 171 kts 310°
2026-05-04 19:51 25.93571 -80.34653 6431 ft 171 kts 309°
2026-05-04 19:52 25.94353 -80.35635 6729 ft 173 kts 309°
2026-05-04 19:52 25.95145 -80.36644 7044 ft 174 kts 308°
2026-05-04 19:52 25.95937 -80.37655 7392 ft 173 kts 308°
2026-05-04 19:52 25.96730 -80.38660 7731 ft 173 kts 308°
2026-05-04 19:53 25.97529 -80.39669 8055 ft 174 kts 307°
2026-05-04 19:53 25.98325 -80.40683 8385 ft 174 kts 307°
2026-05-04 19:53 25.99125 -80.41694 8723 ft 174 kts 307°
2026-05-04 19:53 25.99926 -80.42708 9059 ft 174 kts 306°
2026-05-04 19:54 26.00723 -80.43721 9407 ft 174 kts 306°
2026-05-04 19:54 26.01520 -80.44730 9725 ft 174 kts 306°
2026-05-04 19:54 26.02316 -80.45741 10021 ft 173 kts 306°
2026-05-04 19:54 26.03112 -80.46751 10291 ft 174 kts 305°
2026-05-04 19:55 26.03898 -80.47749 10595 ft 174 kts 305°
2026-05-04 19:55 26.04707 -80.48781 10944 ft 175 kts 305°
2026-05-04 19:55 26.05496 -80.49784 11301 ft 175 kts 304°
2026-05-04 19:55 26.06303 -80.50810 11655 ft 176 kts 304°
2026-05-04 19:56 26.07114 -80.51840 12008 ft 177 kts 304°
2026-05-04 19:56 26.07928 -80.52876 12376 ft 178 kts 304°
2026-05-04 19:56 26.08744 -80.53912 12734 ft 178 kts 304°
2026-05-04 19:56 26.09561 -80.54950 13017 ft 178 kts 304°
2026-05-04 19:57 26.10378 -80.55989 13271 ft 178 kts 304°
2026-05-04 19:57 26.11195 -80.57029 13516 ft 179 kts 304°
2026-05-04 19:57 26.12015 -80.58073 13772 ft 179 kts 303°
2026-05-04 19:57 26.12825 -80.59105 14009 ft 179 kts 303°
2026-05-04 19:58 26.13650 -80.60157 14212 ft 180 kts 303°
2026-05-04 19:58 26.14489 -80.61230 14283 ft 189 kts 303°
2026-05-04 19:58 26.15363 -80.62350 14424 ft 192 kts 304°
2026-05-04 19:58 26.16245 -80.63472 14614 ft 193 kts 303°
2026-05-04 19:59 26.17127 -80.64597 14797 ft 193 kts 303°
2026-05-04 19:59 26.18011 -80.65724 14981 ft 193 kts 303°
2026-05-04 19:59 26.18894 -80.66851 15147 ft 193 kts 303°
2026-05-04 19:59 26.19780 -80.67983 15322 ft 194 kts 303°
2026-05-04 20:00 26.20666 -80.69112 15483 ft 194 kts 303°
2026-05-04 20:00 26.21545 -80.70236 15644 ft 194 kts 303°
2026-05-04 20:00 26.22434 -80.71372 15815 ft 196 kts 303°
2026-05-04 20:00 26.23342 -80.72533 15900 ft 201 kts 303°
2026-05-04 20:01 26.24272 -80.73724 15941 ft 207 kts 303°
2026-05-04 20:01 26.25229 -80.74953 15958 ft 213 kts 304°
2026-05-04 20:01 26.26213 -80.76216 15976 ft 218 kts 304°
2026-05-04 20:01 26.27216 -80.77503 15970 ft 222 kts 304°
2026-05-04 20:02 26.28237 -80.78813 15975 ft 226 kts 304°
2026-05-04 20:02 26.29277 -80.80143 15978 ft 229 kts 304°
2026-05-04 20:02 26.30327 -80.81485 15980 ft 231 kts 304°
2026-05-04 20:02 26.31390 -80.82850 15962 ft 233 kts 304°
2026-05-04 20:03 26.32442 -80.84196 15967 ft 234 kts 304°
2026-05-04 20:03 26.33511 -80.85572 15970 ft 235 kts 304°
2026-05-04 20:03 26.34587 -80.86958 15974 ft 237 kts 304°
2026-05-04 20:03 26.35665 -80.88349 15980 ft 238 kts 304°
2026-05-04 20:04 26.36743 -80.89760 15974 ft 238 kts 304°
2026-05-04 20:04 26.37813 -80.91172 15975 ft 239 kts 304°
2026-05-04 20:04 26.38898 -80.92581 15961 ft 239 kts 304°
2026-05-04 20:04 26.39988 -80.93984 15974 ft 239 kts 304°
2026-05-04 20:05 26.41077 -80.95386 15969 ft 239 kts 304°
2026-05-04 20:05 26.42167 -80.96788 15965 ft 239 kts 304°
2026-05-04 20:05 26.43258 -80.98192 15966 ft 239 kts 304°
2026-05-04 20:05 26.44333 -80.99575 15970 ft 239 kts 304°
2026-05-04 20:06 26.45437 -81.00995 15967 ft 239 kts 304°
2026-05-04 20:06 26.46513 -81.02380 15963 ft 239 kts 304°
2026-05-04 20:06 26.47601 -81.03781 15963 ft 239 kts 304°
2026-05-04 20:06 26.48693 -81.05188 15969 ft 239 kts 304°
2026-05-04 20:07 26.49782 -81.06591 15963 ft 239 kts 305°
2026-05-04 20:07 26.50868 -81.07993 15964 ft 239 kts 304°
2026-05-04 20:07 26.51986 -81.09368 15970 ft 240 kts 309°
2026-05-04 20:07 26.53217 -81.10640 15975 ft 242 kts 311°
2026-05-04 20:08 26.54476 -81.11888 15979 ft 242 kts 311°
2026-05-04 20:08 26.55728 -81.13141 15978 ft 242 kts 311°
2026-05-04 20:08 26.56967 -81.14415 15963 ft 242 kts 310°
2026-05-04 20:08 26.58193 -81.15702 15964 ft 241 kts 310°
2026-05-04 20:09 26.59414 -81.16989 15974 ft 241 kts 310°
2026-05-04 20:09 26.60636 -81.18277 15975 ft 242 kts 310°
2026-05-04 20:09 26.61862 -81.19568 15969 ft 242 kts 310°
2026-05-04 20:09 26.63085 -81.20857 15962 ft 242 kts 310°
2026-05-04 20:10 26.64264 -81.22183 15966 ft 238 kts 304°
2026-05-04 20:10 26.65288 -81.23628 15963 ft 237 kts 301°
2026-05-04 20:10 26.66264 -81.25079 15977 ft 237 kts 301°
2026-05-04 20:10 26.67259 -81.26547 15975 ft 238 kts 302°
2026-05-04 20:11 26.68289 -81.28005 15962 ft 238 kts 303°
2026-05-04 20:11 26.69326 -81.29450 15962 ft 238 kts 303°
2026-05-04 20:11 26.70367 -81.30896 15964 ft 238 kts 303°
2026-05-04 20:11 26.71407 -81.32345 15962 ft 238 kts 303°
2026-05-04 20:12 26.72449 -81.33789 15964 ft 239 kts 303°
2026-05-04 20:12 26.73490 -81.35238 15965 ft 239 kts 303°
2026-05-04 20:12 26.74533 -81.36688 15963 ft 239 kts 303°
2026-05-04 20:12 26.75560 -81.38117 15965 ft 239 kts 303°
2026-05-04 20:13 26.76603 -81.39571 15963 ft 239 kts 303°
2026-05-04 20:13 26.77647 -81.41023 15965 ft 239 kts 303°
2026-05-04 20:13 26.78689 -81.42475 15966 ft 239 kts 303°
2026-05-04 20:13 26.79733 -81.43929 15965 ft 239 kts 303°
2026-05-04 20:14 26.80775 -81.45381 15964 ft 239 kts 303°
2026-05-04 20:14 26.81816 -81.46832 15967 ft 239 kts 303°
2026-05-04 20:14 26.82859 -81.48287 15967 ft 239 kts 303°
2026-05-04 20:14 26.83902 -81.49743 15975 ft 239 kts 303°
2026-05-04 20:15 26.84943 -81.51194 15976 ft 239 kts 303°
2026-05-04 20:15 26.85986 -81.52650 15976 ft 239 kts 303°
2026-05-04 20:15 26.87028 -81.54105 15972 ft 240 kts 303°
2026-05-04 20:15 26.88071 -81.55562 15980 ft 240 kts 303°
2026-05-04 20:16 26.89115 -81.57021 15984 ft 240 kts 303°
2026-05-04 20:16 26.90157 -81.58478 15975 ft 240 kts 303°
2026-05-04 20:16 26.91201 -81.59937 15975 ft 240 kts 303°
2026-05-04 20:16 26.92246 -81.61398 15977 ft 240 kts 303°
2026-05-04 20:17 26.93288 -81.62858 15978 ft 240 kts 303°
2026-05-04 20:17 26.94320 -81.64301 15986 ft 240 kts 303°
2026-05-04 20:17 26.95362 -81.65759 15990 ft 240 kts 303°
2026-05-04 20:17 26.96407 -81.67221 15987 ft 240 kts 303°
2026-05-04 20:18 26.97450 -81.68682 15988 ft 240 kts 303°
2026-05-04 20:18 26.98492 -81.70144 15987 ft 240 kts 303°
2026-05-04 20:18 26.99535 -81.71607 15996 ft 240 kts 303°
2026-05-04 20:18 27.00579 -81.73073 15982 ft 240 kts 303°
2026-05-04 20:19 27.01625 -81.74538 15982 ft 240 kts 303°
2026-05-04 20:19 27.02669 -81.76005 15985 ft 241 kts 303°
2026-05-04 20:19 27.03717 -81.77474 15982 ft 241 kts 303°
2026-05-04 20:19 27.04766 -81.78949 15875 ft 245 kts 304°
2026-05-04 20:20 27.05845 -81.80466 15654 ft 253 kts 304°
2026-05-04 20:20 27.06964 -81.82039 15318 ft 261 kts 304°
2026-05-04 20:20 27.08098 -81.83636 14983 ft 262 kts 304°
2026-05-04 20:20 27.09381 -81.85041 14651 ft 265 kts 318°
2026-05-04 20:21 27.10906 -81.86227 14312 ft 267 kts 321°
2026-05-04 20:21 27.12457 -81.87398 13973 ft 269 kts 321°
2026-05-04 20:21 27.15494 -81.89890 13221 ft 271 kts 318°
2026-05-04 20:22 27.17000 -81.91175 12832 ft 273 kts 319°
2026-05-04 20:22 27.18509 -81.92471 12458 ft 273 kts 318°
2026-05-04 20:22 27.20021 -81.93775 12074 ft 275 kts 319°
2026-05-04 20:22 27.21523 -81.95067 11710 ft 276 kts 319°
2026-05-04 20:23 27.23048 -81.96380 11343 ft 277 kts 319°
2026-05-04 20:23 27.24578 -81.97702 10981 ft 277 kts 319°
2026-05-04 20:23 27.26110 -81.99027 10617 ft 278 kts 319°
2026-05-04 20:23 27.27642 -82.00353 10261 ft 278 kts 319°
2026-05-04 20:24 27.29181 -82.01689 9910 ft 279 kts 319°
2026-05-04 20:24 27.30711 -82.03027 9514 ft 279 kts 319°
2026-05-04 20:24 27.31722 -82.03917 9337 ft 276 kts 319°
2026-05-04 20:24 27.33201 -82.05227 9067 ft 266 kts 319°
2026-05-04 20:25 27.34673 -82.06443 8802 ft 258 kts 322°
2026-05-04 20:25 27.36127 -82.07588 8526 ft 253 kts 321°
2026-05-04 20:25 27.37529 -82.08759 8239 ft 249 kts 320°
2026-05-04 20:25 27.38896 -82.09939 7959 ft 246 kts 319°
2026-05-04 20:26 27.40240 -82.11157 7532 ft 249 kts 319°
2026-05-04 20:26 27.41588 -82.12417 7075 ft 253 kts 319°
2026-05-04 20:26 27.42939 -82.13696 6630 ft 255 kts 319°
2026-05-04 20:26 27.44291 -82.14988 6292 ft 252 kts 320°
2026-05-04 20:27 27.45577 -82.16273 6140 ft 243 kts 317°
2026-05-04 20:27 27.46751 -82.17579 6067 ft 238 kts 315°
2026-05-04 20:27 27.47916 -82.18898 6020 ft 238 kts 315°
2026-05-04 20:27 27.49103 -82.20245 6010 ft 246 kts 315°
2026-05-04 20:28 27.50343 -82.21630 6004 ft 254 kts 316°
2026-05-04 20:28 27.51624 -82.23035 6007 ft 260 kts 316°
2026-05-04 20:28 27.52929 -82.24464 5990 ft 260 kts 316°
2026-05-04 20:28 27.54216 -82.25876 5995 ft 255 kts 316°
2026-05-04 20:29 27.55486 -82.27263 5997 ft 254 kts 316°
2026-05-04 20:29 27.56753 -82.28650 5996 ft 253 kts 316°
2026-05-04 20:29 27.58000 -82.30019 5990 ft 252 kts 316°
2026-05-04 20:29 27.59263 -82.31405 5877 ft 256 kts 316°
2026-05-04 20:30 27.60566 -82.32831 5510 ft 263 kts 316°
2026-05-04 20:30 27.61875 -82.34265 5134 ft 261 kts 317°
2026-05-04 20:30 27.63171 -82.35679 4814 ft 259 kts 317°
2026-05-04 20:30 27.64466 -82.37090 4446 ft 257 kts 317°
2026-05-04 20:31 27.65740 -82.38488 4207 ft 252 kts 317°
2026-05-04 20:31 27.66974 -82.39846 4093 ft 243 kts 317°
2026-05-04 20:31 27.68154 -82.41152 4039 ft 233 kts 318°
2026-05-04 20:31 27.69023 -82.42613 4015 ft 223 kts 288°
2026-05-04 20:32 27.69208 -82.44309 4014 ft 215 kts 268°
2026-05-04 20:32 27.69126 -82.45959 3988 ft 210 kts 266°
2026-05-04 20:32 27.69009 -82.47608 3987 ft 206 kts 265°
2026-05-04 20:32 27.68881 -82.49199 3993 ft 207 kts 264°
2026-05-04 20:33 27.68746 -82.50830 4004 ft 210 kts 264°
2026-05-04 20:33 27.68590 -82.52477 4000 ft 211 kts 264°
2026-05-04 20:33 27.68635 -82.54097 3985 ft 206 kts 291°
2026-05-04 20:33 27.69514 -82.55312 3987 ft 199 kts 328°
2026-05-04 20:34 27.70718 -82.56039 3982 ft 193 kts 351°
2026-05-04 20:34 27.72015 -82.56020 3985 ft 188 kts
2026-05-04 20:34 27.73301 -82.55878 3979 ft 182 kts
2026-05-04 20:34 27.74537 -82.55694 3980 ft 176 kts 13°
2026-05-04 20:35 27.75717 -82.55440 3978 ft 169 kts 14°
2026-05-04 20:35 27.76849 -82.55170 3971 ft 162 kts 14°
2026-05-04 20:35 27.77928 -82.54907 3968 ft 155 kts 15°
2026-05-04 20:35 27.78970 -82.54649 3952 ft 150 kts 15°
2026-05-04 20:36 27.79985 -82.54474 3956 ft 148 kts
2026-05-04 20:36 27.81049 -82.54484 3666 ft 168 kts
2026-05-04 20:36 27.82325 -82.54468 2997 ft 198 kts
2026-05-04 20:36 27.83726 -82.54467 2364 ft 206 kts 359°
2026-05-04 20:37 27.85121 -82.54602 2224 ft 186 kts 357°
2026-05-04 20:37 27.86438 -82.54619 2040 ft 198 kts
2026-05-04 20:37 27.87803 -82.54513 1691 ft 190 kts
2026-05-04 20:37 27.89078 -82.54474 1437 ft 176 kts
2026-05-04 20:38 27.90253 -82.54453 1197 ft 163 kts
2026-05-04 20:38 27.91362 -82.54407 986 ft 156 kts
2026-05-04 20:38 27.92418 -82.54363 803 ft 149 kts
2026-05-04 20:38 27.93432 -82.54327 621 ft 140 kts
2026-05-04 20:39 27.94375 -82.54306 463 ft 132 kts
2026-05-04 20:39 27.95271 -82.54275 277 ft 123 kts
2026-05-04 20:39 27.96078 -82.54250 114 ft 109 kts
2026-05-04 20:39 27.96811 -82.54218 22 ft 102 kts
2026-05-04 20:40 27.97439 -82.54199 20 ft 79 kts
2026-05-04 20:40 27.97845 -82.54170 18 ft 32 kts 17°
2026-05-04 20:40 27.97954 -82.54102 20 ft 0 kts 33°
2026-05-04 20:40 27.97965 -82.54094 19 ft 3 kts 32°
2026-05-04 20:41 27.98027 -82.54058 20 ft 11 kts 13°
2026-05-04 20:41 27.98099 -82.54051 21 ft 16 kts
2026-05-04 20:41 27.98287 -82.54046 25 ft 28 kts
2026-05-04 20:41 27.98452 -82.54038 27 ft 20 kts
2026-05-04 20:42 27.98570 -82.54021 28 ft 14 kts 36°
2026-05-04 20:42 27.98581 -82.53927 28 ft 12 kts 94°
2026-05-04 20:42 27.98578 -82.53829 27 ft 18 kts 90°
2026-05-04 20:42 27.98576 -82.53663 25 ft 19 kts 90°
2026-05-04 20:43 27.98575 -82.53532 27 ft 14 kts 94°
2026-05-04 20:43 27.98569 -82.53415 30 ft 21 kts 92°
2026-05-04 20:43 27.98565 -82.53217 28 ft 28 kts 94°
2026-05-04 20:43 27.98557 -82.53029 29 ft 18 kts 91°
2026-05-04 20:44 27.98498 -82.52956 30 ft 17 kts 178°
2026-05-04 20:44 27.98343 -82.52959 27 ft 21 kts 181°
2026-05-04 20:44 27.98206 -82.52963 29 ft 18 kts 182°
2026-05-04 20:44 27.98094 -82.52967 31 ft 15 kts 182°
2026-05-04 20:45 27.97993 -82.52971 30 ft 14 kts 182°
2026-05-04 20:45 27.97891 -82.52977 29 ft 14 kts 189°
2026-05-04 20:45 27.97868 -82.53050 31 ft 9 kts 328°
2026-05-04 20:45 27.97936 -82.53057 31 ft 16 kts 358°
2026-05-04 20:46 27.98007 -82.53074 31 ft 8 kts 291°
2026-05-04 20:46 27.98011 -82.53128 31 ft 6 kts 271°
2026-05-04 20:46 27.98011 -82.53133 32 ft 0 kts 271°